Regional Weather Roundup
Issued by NWS Kansas City/Pleasant Hill, MO

Home | Current Version | Previous Version | Text Only | Print | Product List | Glossary On
Versions: 1 2 3 4 5 6 7 8 9 10 11 12 13 14 15 16 17 18 19 20 21 22 23 24 25 26 27 28
000
ASUS43 KEAX 250710
RWREAX

WEATHER ROUNDUP FOR EASTERN KANSAS AND NORTHWEST MISSOURI
NATIONAL WEATHER SERVICE KANSAS CITY/PLEASANT HILL MO
200 AM CDT SUN JUN 25 2017

KSZ040-057-103>105-MOZ028-029-037-043-250800-
...KANSAS CITY METROPOLITAN AREA...

CITY           SKY/WX    TMP DP  RH WIND       PRES   REMARKS
K.C. INTL      MOCLDY    62  51  67 SW8       30.21R
K.C. DOWNTOWN  CLOUDY    70  49  47 SW8       30.20S
LEES SUMMIT    CLOUDY    67  51  56 SW8       30.22R
OLATHE - IXD   CLOUDY    68  51  54 SW9       30.23S
OLATHE - OJC   PTCLDY    67  50  54 SW6       30.23S
LAWRENCE       CLOUDY    64  58  80 NW5       30.22S

$$

MOZ001>008-011>017-020>025-030>033-038>040-044>046-053-054-250800-
...NORTHERN AND CENTRAL MISSOURI...

CITY           SKY/WX    TMP DP  RH WIND       PRES   REMARKS
ST. JOSEPH     CLEAR     60  48  64 NW3       30.20R
MOSBY          MOSUNNY   59  55  88 CALM      30.20R
WARRENSBURG    CLEAR     61  50  67 S5        30.21R
WHITEMAN AFB   PTCLDY    62  50  65 SW8       30.20R
CLINTON        PTCLDY    61  54  77 SW5       30.22S
SEDALIA        CLEAR     60  53  77 SW8       30.21S
WARSAW         NOT AVBL
CHILLICOTHE      N/A     58  51  78 CALM      30.18R
KIRKSVILLE     CLEAR     57  48  72 NW5       30.17R

$$

MOZ041-047>049-056>058-063>065-088>090-097-250800-
...EASTERN AND SOUTHERN MISSOURI...

CITY           SKY/WX    TMP DP  RH WIND       PRES   REMARKS
ST. LOUIS INTL PTCLDY    66  46  48 SW7       30.16F
SPIRIT OF STL  CLEAR     56  53  90 CALM      30.16S
COLUMBIA       PTCLDY    60  50  69 SW8       30.19S
JEFFERSON CITY CLEAR     60  51  72 CALM      30.19S
ROLLA          PTCLDY    54  48  80 S8        30.20S
OSAGE BEACH    CLEAR     55  53  93 CALM      30.22S
SPRINGFIELD    CLOUDY    61  54  77 CALM      30.24S
BRANSON        CLOUDY    59  52  77 CALM      30.26S
JOPLIN         CLOUDY    65  58  78 CALM      30.25R
WEST PLAINS    CLEAR     58  52  80 CALM      30.25R

$$

IAZ060-094-KSZ022-034>040-054-083-096-NEZ052-066-093-250800-
...KANSAS...SOUTHEAST NEBRASKA AND IOWA...

CITY           SKY/WX    TMP DP  RH WIND       PRES   REMARKS
TOPEKA         CLOUDY    70  50  49 W3        30.22S
MANHATTAN      CLOUDY    64  55  72 W6        30.25R
EMPORIA        CLOUDY    66  51  58 N5        30.27R
CHANUTE        CLOUDY    60  52  74 CALM      30.25R
WICHITA        MOCLDY    67  57  70 S5        30.25S
OMAHA          PTCLDY    57  45  64 N5        30.23R
LINCOLN        PTCLDY    54  45  71 N6        30.26R
FALLS CITY     PTCLDY    56  47  71 NW7       30.20R
LAMONI         PTCLDY    57  45  64 N7        30.19R
DES MOINES     PTCLDY    57  46  66 NW6       30.17S

$$





USA.gov is the U.S. government's official web portal to all federal, state and local government web resources and services.